[[{"header":{"parameterUnit":"m.s-1","parameterCategory":1,"la1":30.2991,"la2":30.254,"lo1":-89.0895,"lo2":-89.0444,"dy":0.0017,"dx":0.0017,"nx":28,"ny":28,"refTime":"2024-12-17T09:00:00:Z","depth":0,"parameterNumber":2,"parameterNumberName":"U-component_of_WINDS"},"data":[0,0,0,0,0,0,0,0,0,0,0,0,0,0,0,0,0,0,0,0,0,0,0,0,0,0,0,0,0,0,0,0,0,0,0,0,0,0,0,0,0,0,0,0,0,0,0,0,0,0,0,0,0,0,0,0,0,0,1.4264,1.4264,0,1.4292,1.4292,1.4293,1.4262,1.4261,1.426,1.4259,1.4287,1.4289,1.4291,0,0,0,0,0,0,0,0,0,0,0,0,0,1.4183,1.4185,1.4264,1.4264,1.4264,1.4292,1.4292,1.4293,1.4263,1.4261,1.426,1.4258,1.4286,1.4289,1.4291,0,0,0,0,0,0,0,0,0,0,0,0,0,1.4215,1.4185,1.4263,1.4253,1.4252,1.4292,1.4292,1.4293,1.4263,1.4261,1.4259,1.4258,1.4286,1.4288,1.4291,1.4343,0,0,1.43,1.4301,0,0,0,0,0,0,0,0,1.4214,1.4218,1.4254,1.4253,1.4253,1.4272,1.4274,1.431,1.4263,1.4259,1.4259,1.4257,1.4283,1.4286,1.4295,1.4344,1.4346,1.43,1.4301,1.4303,1.4303,0,0,0,0,0,0,0,1.4211,1.4217,1.4275,1.4254,1.4254,1.4246,1.4249,1.4281,1.428,1.4259,1.4257,1.4261,1.4283,1.4293,1.4296,1.4346,1.43,1.4302,1.4304,1.4305,1.444,1.4442,0,0,0,0,0,0,1.421,1.4215,1.4274,1.4276,1.4229,1.4249,1.4252,1.4267,1.428,1.428,1.4262,1.4259,1.4289,1.4293,1.4297,1.4359,1.4303,1.4305,1.4307,1.4438,1.4441,1.4443,0,0,0,0,0,0,1.4209,1.4216,1.4273,1.4245,1.4252,1.4252,1.427,1.4269,1.4279,1.4282,1.4282,1.4272,1.4288,1.4293,1.4332,1.436,1.4306,1.4309,1.4436,1.4439,1.4442,1.4484,0,0,0,0,0,0,1.4207,1.4216,1.4235,1.4246,1.4253,1.4308,1.4272,1.4271,1.4284,1.428,1.4292,1.4292,1.4287,1.4328,1.4335,1.4362,1.4311,1.4434,1.4437,1.4441,1.448,1.4488,1.4495,0,0,0,0,0,1.4204,1.4245,1.4236,1.4244,1.4278,1.4309,1.4314,1.4307,1.4286,1.4306,1.4309,1.4292,1.4356,1.4332,1.434,1.4369,1.4432,1.4436,1.4441,1.4477,1.4486,1.4494,0,0,0,0,0,0,1.4237,1.4246,1.4237,1.4283,1.4296,1.4304,1.4329,1.4317,1.4336,1.4331,1.4322,1.4325,1.4367,1.4371,1.4345,1.442,1.439,1.4396,1.4415,1.4424,1.4432,1.443,1.4313,0,0,0,0,0,1.425,1.4275,1.4282,1.4322,1.4329,1.4328,1.4342,1.4335,1.4348,1.4353,1.4358,1.4371,1.4394,1.441,1.4431,1.4481,1.4483,1.4504,1.4511,1.4517,1.4523,1.455,1.456,1.4457,1.4457,1.4457,0,0,1.4277,1.4285,1.4301,1.4329,1.4338,1.4365,1.4333,1.4362,1.4381,1.4357,1.4395,1.44,1.4413,1.4459,1.4479,1.4464,1.4552,1.4523,1.4528,1.453,1.4556,1.4566,1.4574,1.446,1.446,1.4459,0,0,1.4339,1.4347,1.4382,1.4393,1.4407,1.4407,1.4415,1.4426,1.4428,1.4466,1.4449,1.4472,1.4512,1.4523,1.4534,1.4602,1.4587,1.4609,1.4647,1.4674,1.4682,1.4689,1.4714,1.4723,1.4614,1.4614,1.4614,0,1.437,1.4409,1.4402,1.4432,1.4445,1.4426,1.4461,1.4472,1.4492,1.4502,1.4485,1.4535,1.4543,1.4591,1.4608,1.4617,1.4627,1.4607,1.4682,1.4689,1.4695,1.4719,1.4728,1.4617,1.4616,1.4616,1.4616,0,1.4447,1.4475,1.4501,1.4523,1.4539,1.4572,1.4569,1.4586,1.4579,1.458,1.462,1.4629,1.4652,1.4663,1.4655,1.471,1.4701,1.4683,1.4653,1.4708,1.473,1.4739,1.462,1.4619,1.4619,1.4618,0,0,1.453,1.4548,1.4558,1.4568,1.4584,1.4605,1.4638,1.4661,1.4676,1.4691,1.4719,1.4753,1.4738,1.475,1.4744,1.4768,1.4822,1.4747,1.4747,1.4761,1.4884,1.4897,1.4908,1.4813,1.4814,1.4816,1.4883,0,1.4593,1.465,1.4645,1.4699,1.4724,1.4707,1.4735,1.4748,1.4751,1.4773,1.4775,1.48,1.4777,1.4784,1.4807,1.4811,1.4847,1.4806,1.4838,1.484,1.4836,1.4919,1.4934,1.4996,1.4891,1.4893,1.4894,0,1.4674,1.4693,1.475,1.4763,1.4774,1.4799,1.4821,1.4843,1.4857,1.4857,1.4872,1.4862,1.4895,1.4864,1.491,1.4882,1.4895,1.4899,1.4901,1.4904,1.487,1.4925,1.5016,1.5026,1.4907,1.4906,1.4905,0,1.473,1.477,1.481,1.4819,1.4834,1.4853,1.486,1.4873,1.4888,1.4907,1.4917,1.4939,1.4951,1.4969,1.4966,1.4944,1.5013,1.4982,1.5014,1.5014,1.5029,1.5028,1.5124,1.5037,1.5037,1.5037,1.5037,0,1.4801,1.4837,1.4835,1.4859,1.4899,1.4893,1.4932,1.4937,1.4949,1.4974,1.496,1.4984,1.4978,1.5002,1.4999,1.5038,1.5044,1.5045,1.5044,1.5046,1.5046,1.5055,1.505,1.5039,1.5039,1.5038,1.5038,0,1.487,1.487,1.4912,1.4925,1.4928,1.4957,1.4967,1.4991,1.4992,1.5024,1.5031,1.5034,1.5061,1.506,1.509,1.5089,1.5137,1.5131,1.5132,1.5131,1.5164,1.5161,1.5269,1.5283,1.5186,1.5187,1.5188,0,1.4916,1.4943,1.4958,1.4974,1.4983,1.5009,1.5025,1.502,1.5037,1.5056,1.5077,1.5103,1.5124,1.5169,1.5173,1.5197,1.5191,1.5228,1.5195,1.5197,1.5193,1.5191,1.5194,1.5234,1.5235,1.5236,1.5237,0,1.4997,1.4996,1.5019,1.5043,1.5062,1.508,1.5096,1.511,1.5107,1.5127,1.5155,1.5172,1.5204,1.523,1.5253,1.5261,1.5249,1.5247,1.5256,1.5259,1.5259,1.526,1.515,1.5245,1.5244,1.5243,1.5243,1.5243,1.5056,1.5079,1.5094,1.5121,1.5133,1.5149,1.5172,1.5177,1.5201,1.5227,1.5223,1.5255,1.5269,1.5299,1.5309,1.5334,1.5321,1.5334,1.5337,1.534,1.5344,1.5255,1.5338,1.5338,1.5338,1.5337,1.5337,0,1.5136,1.5146,1.517,1.5194,1.5215,1.5203,1.5221,1.5239,1.5268,1.5283,1.5304,1.5337,1.5363,1.537,1.5395,1.5414,1.5409,1.5421,1.542,1.5422,1.5354,1.5344,1.5424,1.5424,1.5424,1.5424,1.5424,1.5424,1.5181,1.5221,1.5222,1.5268,1.5277,1.5309,1.532,1.5335,1.5347,1.5385,1.5407,1.5412,1.5424,1.545,1.5473,1.5475,1.5485,1.5499,1.5498,1.5435,1.5426,1.5418,1.5409,1.5501,1.5501,1.5564,1.5564,1.5565]},{"header":{"parameterUnit":"m.s-1","parameterCategory":1,"la1":30.2991,"la2":30.254,"lo1":-89.0895,"lo2":-89.0444,"dy":0.0017,"dx":0.0017,"nx":28,"ny":28,"refTime":"2024-12-17T09:00:00:Z","depth":0,"parameterNumber":3,"parameterNumberName":"V-component_of_WINDS"},"data":[0,0,0,0,0,0,0,0,0,0,0,0,0,0,0,0,0,0,0,0,0,0,0,0,0,0,0,0,0,0,0,0,0,0,0,0,0,0,0,0,0,0,0,0,0,0,0,0,0,0,0,0,0,0,0,0,0,0,-1.0647,-1.0647,0,-1.0688,-1.0688,-1.0689,-1.0688,-1.0687,-1.0687,-1.0686,-1.0728,-1.073,-1.0731,0,0,0,0,0,0,0,0,0,0,0,0,0,-1.0569,-1.0571,-1.0647,-1.0647,-1.0648,-1.0688,-1.0688,-1.0689,-1.0688,-1.0687,-1.0687,-1.0686,-1.0728,-1.0729,-1.0731,0,0,0,0,0,0,0,0,0,0,0,0,0,-1.0606,-1.0571,-1.0646,-1.0652,-1.0653,-1.0687,-1.0688,-1.0689,-1.0688,-1.0687,-1.0687,-1.0686,-1.0727,-1.0729,-1.0732,-1.0763,0,0,-1.0739,-1.074,0,0,0,0,0,0,0,0,-1.0604,-1.0609,-1.0651,-1.0652,-1.0653,-1.0682,-1.0676,-1.0714,-1.0688,-1.0675,-1.0686,-1.0685,-1.0713,-1.0717,-1.0726,-1.0765,-1.0767,-1.0739,-1.0741,-1.0742,-1.0742,0,0,0,0,0,0,0,-1.0601,-1.0607,-1.0663,-1.0651,-1.0653,-1.0653,-1.0657,-1.0683,-1.0698,-1.0676,-1.0676,-1.0681,-1.0714,-1.0724,-1.0727,-1.0767,-1.0739,-1.0741,-1.0743,-1.0744,-1.0838,-1.0839,0,0,0,0,0,0,-1.0597,-1.0605,-1.0661,-1.0664,-1.0626,-1.0655,-1.066,-1.0673,-1.0698,-1.0701,-1.0682,-1.0681,-1.072,-1.0724,-1.0729,-1.0769,-1.0742,-1.0744,-1.0745,-1.0837,-1.0838,-1.0839,0,0,0,0,0,0,-1.0596,-1.0602,-1.066,-1.0635,-1.0642,-1.0657,-1.0672,-1.0675,-1.0685,-1.0702,-1.0705,-1.0689,-1.072,-1.0725,-1.0755,-1.0771,-1.0745,-1.0747,-1.0835,-1.0837,-1.0838,-1.0849,0,0,0,0,0,0,-1.0594,-1.0602,-1.0613,-1.0635,-1.0643,-1.0685,-1.0673,-1.0676,-1.0689,-1.0688,-1.071,-1.0713,-1.072,-1.0752,-1.0758,-1.0774,-1.0749,-1.0834,-1.0836,-1.0838,-1.0848,-1.0851,-1.0854,0,0,0,0,0,-1.0591,-1.0614,-1.0614,-1.0621,-1.0658,-1.0686,-1.0691,-1.0698,-1.069,-1.0703,-1.0714,-1.0712,-1.0768,-1.0755,-1.0762,-1.0778,-1.0833,-1.0835,-1.0838,-1.0846,-1.0851,-1.0854,0,0,0,0,0,0,-1.0593,-1.0617,-1.0617,-1.0648,-1.0665,-1.0686,-1.0701,-1.0702,-1.0721,-1.072,-1.0728,-1.0733,-1.0764,-1.0774,-1.0759,-1.0812,-1.08,-1.0803,-1.0804,-1.0808,-1.0811,-1.0808,-1.0751,0,0,0,0,0,-1.0597,-1.0618,-1.0638,-1.0663,-1.0672,-1.0685,-1.0698,-1.0702,-1.072,-1.0727,-1.0741,-1.0759,-1.0781,-1.0795,-1.0816,-1.0849,-1.0855,-1.0865,-1.0868,-1.087,-1.0874,-1.0895,-1.09,-1.0847,-1.0847,-1.0846,0,0,-1.0606,-1.0621,-1.0634,-1.0664,-1.0678,-1.07,-1.0691,-1.0714,-1.0731,-1.0731,-1.0761,-1.0772,-1.0792,-1.0825,-1.084,-1.0834,-1.089,-1.0873,-1.0875,-1.0877,-1.0898,-1.0903,-1.0908,-1.0848,-1.0848,-1.0848,0,0,-1.0633,-1.0646,-1.067,-1.0685,-1.0707,-1.0716,-1.0722,-1.0743,-1.0751,-1.0781,-1.0782,-1.0803,-1.0839,-1.0855,-1.0868,-1.0905,-1.0904,-1.0911,-1.0928,-1.0949,-1.0953,-1.0957,-1.0972,-1.0977,-1.0914,-1.0914,-1.0914,0,-1.0641,-1.0674,-1.0682,-1.0706,-1.0721,-1.0723,-1.0748,-1.0761,-1.0789,-1.0799,-1.0792,-1.0841,-1.0855,-1.0893,-1.0902,-1.0911,-1.092,-1.0909,-1.0952,-1.0955,-1.0959,-1.0974,-1.0979,-1.0915,-1.0915,-1.0915,-1.0915,0,-1.0684,-1.0707,-1.0724,-1.0752,-1.0768,-1.0792,-1.0805,-1.082,-1.0824,-1.0835,-1.0867,-1.0884,-1.091,-1.0919,-1.0922,-1.0958,-1.0955,-1.095,-1.0938,-1.0965,-1.0979,-1.0984,-1.0916,-1.0916,-1.0916,-1.0916,0,0,-1.0712,-1.0746,-1.0752,-1.0766,-1.0791,-1.081,-1.0835,-1.0861,-1.0876,-1.0895,-1.0918,-1.095,-1.0947,-1.0962,-1.0967,-1.0985,-1.1017,-1.0979,-1.0979,-1.0987,-1.106,-1.1065,-1.1071,-1.1017,-1.1018,-1.1018,-1.1059,0,-1.0743,-1.0789,-1.0798,-1.0838,-1.0861,-1.0864,-1.0887,-1.0906,-1.0917,-1.0939,-1.0951,-1.0975,-1.0968,-1.0977,-1.0995,-1.1009,-1.1032,-1.1006,-1.1039,-1.104,-1.1035,-1.1078,-1.1082,-1.1119,-1.1064,-1.1065,-1.1066,0,-1.0785,-1.0807,-1.085,-1.0875,-1.0885,-1.0905,-1.0931,-1.0951,-1.0974,-1.0981,-1.0999,-1.1003,-1.1031,-1.1018,-1.1059,-1.1041,-1.1055,-1.1065,-1.1066,-1.107,-1.1055,-1.1084,-1.1131,-1.1137,-1.1074,-1.1074,-1.1073,0,-1.0804,-1.0844,-1.0875,-1.0887,-1.0916,-1.0931,-1.0944,-1.0966,-1.0982,-1.1005,-1.1016,-1.1041,-1.1056,-1.1076,-1.1088,-1.1077,-1.1129,-1.1116,-1.1137,-1.1137,-1.1148,-1.1147,-1.1199,-1.1155,-1.1155,-1.1155,-1.1155,0,-1.0838,-1.0865,-1.0885,-1.0904,-1.0934,-1.0946,-1.0976,-1.0989,-1.1008,-1.1031,-1.1036,-1.1057,-1.1071,-1.1095,-1.1105,-1.1138,-1.1144,-1.1152,-1.1154,-1.1152,-1.1152,-1.1162,-1.116,-1.1156,-1.1156,-1.1156,-1.1155,0,-1.0864,-1.0878,-1.0913,-1.0939,-1.0947,-1.0968,-1.0991,-1.1011,-1.1023,-1.1052,-1.106,-1.1079,-1.1108,-1.1122,-1.1157,-1.1164,-1.1202,-1.1202,-1.1195,-1.1196,-1.1217,-1.1216,-1.1278,-1.1288,-1.1236,-1.1237,-1.1237,0,-1.0886,-1.0906,-1.0935,-1.0951,-1.0965,-1.099,-1.1008,-1.102,-1.1038,-1.1067,-1.1084,-1.1113,-1.1137,-1.1184,-1.1201,-1.1229,-1.1231,-1.1251,-1.1235,-1.1233,-1.1233,-1.1233,-1.1236,-1.1254,-1.1254,-1.1255,-1.1255,0,-1.0923,-1.093,-1.0954,-1.0982,-1.1002,-1.1025,-1.1047,-1.106,-1.1076,-1.1096,-1.1126,-1.1145,-1.1183,-1.1213,-1.1243,-1.1257,-1.126,-1.126,-1.1267,-1.1265,-1.1261,-1.1266,-1.1204,-1.1259,-1.1258,-1.1258,-1.1258,-1.1258,-1.0948,-1.0968,-1.0992,-1.102,-1.1039,-1.106,-1.1081,-1.1096,-1.1122,-1.1153,-1.116,-1.1192,-1.1217,-1.1258,-1.1273,-1.13,-1.1296,-1.1305,-1.1307,-1.131,-1.1312,-1.1256,-1.1305,-1.1305,-1.1305,-1.1305,-1.1305,0,-1.0988,-1.1004,-1.103,-1.1061,-1.1084,-1.1085,-1.111,-1.1129,-1.1158,-1.1181,-1.1205,-1.1241,-1.1271,-1.1292,-1.1323,-1.134,-1.1343,-1.1348,-1.1348,-1.1352,-1.1313,-1.1305,-1.1346,-1.1346,-1.1346,-1.1346,-1.1346,-1.1346,-1.1011,-1.1045,-1.1055,-1.1099,-1.1116,-1.1148,-1.1163,-1.1183,-1.1202,-1.1242,-1.1267,-1.1281,-1.1304,-1.1337,-1.1365,-1.1371,-1.1383,-1.1389,-1.1394,-1.1358,-1.1354,-1.135,-1.1342,-1.1391,-1.1391,-1.1431,-1.1431,-1.1432]}]]